GFSMA_850_dewp_132.txt.gz
Dewpoint
12 13 13 13 12 12 13 13 14 13 13 13 12 11 12 15 14 13 12 11 10 11 10 10 7 8 8 10 10 9 10 10 11 11 10 10 10 10 9 9 9 7 8
11 11 11 11 13 11 12 13 13 13 13 13 12 12 12 12 14 14 12 12 12 11 11 10 7 7 8 9 10 10 9 9 10 10 11 11 11 10 10 10 8 9 9
14 13 12 12 12 14 13 12 12 13 13 13 13 13 12 13 12 13 13 11 11 11 11 11 10 6 8 9 9 9 10 9 9 9 10 10 11 11 11 10 9 9 9
12 13 13 12 12 12 12 12 12 12 13 13 13 12 13 14 13 13 13 12 12 12 12 12 12 10 7 8 9 9 9 9 9 9 9 10 10 11 11 11 11 10 9
11 11 11 10 11 11 11 11 11 11 11 11 11 12 12 12 9 12 12 13 12 12 12 13 13 13 11 10 8 9 9 10 9 9 9 8 9 10 11 11 11 10 10
8 10 10 10 10 10 9 9 9 9 9 8 9 9 9 10 10 11 8 9 13 13 13 14 12 12 11 7 10 10 9 10 10 9 9 9 9 9 10 10 11 10 10
2 2 2 1 3 4 3 0 -0 -1 -1 2 7 7 4 5 6 10 10 9 10 10 10 9 9 8 7 10 6 7 10 10 9 10 10 9 10 9 10 10 10 11 10
-2 -3 -3 -3 -2 -1 -1 -1 -1 -2 -2 1 4 7 7 4 6 9 10 9 9 9 10 9 8 7 9 8 8 4 7 10 10 10 10 10 9 9 10 10 10 10 10
-2 -4 -3 -4 -3 -2 -3 -3 -2 -2 -3 -3 1 6 7 8 7 5 7 9 10 11 11 10 11 9 9 8 7 7 8 8 10 10 10 10 10 10 10 10 10 10 10
1 -0 -1 -2 -3 -2 -2 -2 -2 -1 0 0 1 5 6 6 7 7 6 5 7 9 10 10 10 9 8 8 8 9 8 8 10 8 10 10 10 9 10 10 10 10 10
1 1 1 1 -0 -1 -1 -1 -2 -1 0 2 2 3 4 5 5 7 7 7 7 9 10 10 11 11 10 9 9 8 8 8 8 8 9 10 10 8 9 10 10 10 10
-1 -1 -0 0 0 0 -0 -0 -1 -0 0 1 2 2 3 4 5 5 5 6 7 6 7 9 10 10 10 10 10 10 10 10 8 8 8 8 8 8 7 9 10 10 10
-2 -2 -1 -1 0 0 -0 -0 -0 0 1 1 1 1 2 3 3 3 4 5 5 6 6 6 9 8 10 11 9 8 7 9 11 12 10 8 8 8 7 7 9 10 11
-4 -3 -3 -2 -2 -1 -1 -1 -1 -1 0 0 1 1 1 2 2 2 2 3 4 5 5 6 3 5 8 9 12 10 10 11 11 12 11 11 11 11 10 8 8 8 10
-4 -4 -4 -4 -3 -2 -2 -1 -2 -1 -0 1 1 1 1 1 2 2 2 2 3 2 4 5 6 3 7 8 9 9 9 10 9 9 10 10 11 11 11 11 10 9 9
-3 -3 -4 -4 -3 -3 -2 -2 -3 -2 -2 -1 -1 -1 -0 0 1 1 2 2 2 2 2 4 5 7 6 6 8 8 9 9 9 10 11 10 11 11 11 11 11 10 9
-4 -4 -5 -5 -4 -3 -3 -5 -5 -5 -4 -4 -3 -2 -2 -1 -1 -0 0 0 1 2 2 3 5 6 7 8 9 9 9 9 10 10 9 10 10 11 11 10 10 10 10
-5 -6 -6 -6 -6 -4 -4 -5 -5 -5 -5 -5 -5 -4 -3 -3 -3 -2 -1 -1 0 1 0 1 4 6 7 7 7 8 8 9 9 9 8 9 10 11 10 9 8 9 10
-7 -6 -7 -8 -11 -8 -4 -5 -6 -6 -6 -6 -6 -6 -5 -4 -4 -4 -3 -2 -1 -0 -0 0 1 3 5 6 7 8 8 7 8 8 8 9 8 8 9 9 8 8 8
-10 -8 -9 -11 -15 -15 -8 -6 -7 -7 -8 -8 -7 -8 -7 -5 -5 -6 -5 -3 -3 -3 -2 -1 -1 0 2 3 4 6 7 8 8 8 9 9 9 9 8 8 9 8 7
-12 -10 -10 -18 -22 -25 -19 -9 -8 -10 -12 -19 -17 -14 -18 -10 -6 -7 -6 -5 -4 -4 -4 -4 -4 -3 -3 -1 -0 1 1 4 5 5 7 8 9 9 8 8 8 8 7
-19 -17 -11 -19 -30 -29 -19 -11 -9 -9 -14 -24 -29 -25 -28 -28 -19 -9 -7 -6 -6 -5 -5 -6 -6 -5 -6 -5 -3 -3 -2 -1 -1 1 2 5 6 8 8 9 7 6 7
-22 -24 -19 -19 -30 -33 -20 -12 -10 -14 -16 -19 -31 -33 -33 -34 -33 -27 -20 -11 -8 -6 -6 -7 -7 -7 -6 -6 -5 -4 -4 -4 -3 -2 0 1 3 4 6 7 9 7 7
-22 -24 -25 -25 -30 -32 -37 -22 -13 -13 -12 -18 -24 -33 -33 -35 -36 -36 -34 -28 -23 -15 -10 -8 -8 -7 -7 -6 -6 -6 -6 -5 -5 -5 -2 -2 0 1 3 5 6 7 7
-12 -15 -19 -24 -30 -29 -36 -37 -25 -19 -17 -18 -23 -26 -23 -22 -20 -35 -37 -36 -33 -29 -23 -20 -16 -12 -9 -7 -6 -6 -6 -7 -7 -6 -5 -7 -5 -3 0 2 4 6 7
-11 -11 -13 -18 -25 -30 -28 -37 -36 -28 -23 -24 -26 -24 -16 -15 -14 -21 -30 -31 -34 -28 -30 -31 -30 -28 -24 -14 -11 -9 -8 -9 -8 -8 -8 -7 -7 -7 -5 -2 2 3 5

GFSMA_850_dewp_135.txt.gz
Dewpoint
11 11 11 12 11 11 12 12 12 13 13 13 12 11 11 11 10 10 11 10 10 11 12 11 10 10 7 7 9 9 10 11 10 10 10 10 10 9 9 8 8 8 7
13 12 12 11 11 10 12 12 12 13 13 13 13 13 13 13 13 13 12 12 10 11 11 11 11 11 7 7 8 9 9 10 10 10 10 10 10 10 9 9 8 8 8
12 12 13 13 12 12 11 11 12 12 12 13 13 13 13 13 13 13 12 10 14 12 12 12 11 11 10 6 8 9 10 9 9 9 10 10 10 10 10 10 9 9 9
12 11 11 11 11 11 10 9 10 9 9 11 11 10 10 11 11 9 10 8 9 12 12 12 12 12 11 9 7 8 10 10 10 9 9 9 10 10 10 10 10 10 9
9 10 11 11 10 10 11 10 10 9 9 9 10 7 5 4 7 8 7 9 10 9 12 13 13 13 13 11 9 8 9 10 10 10 10 9 10 10 10 10 11 10 10
4 5 7 9 9 10 9 10 9 9 9 8 5 -0 -6 -7 -5 1 6 10 9 9 8 12 11 9 12 12 9 10 9 8 8 10 10 10 10 9 10 10 10 10 10
-1 -1 -1 -2 -1 0 -0 -0 -1 -1 -2 -2 -3 -4 -7 -9 -4 1 7 6 5 8 10 9 9 7 7 8 8 9 8 8 10 7 10 10 10 10 9 10 10 10 11
-3 -4 -5 -5 -5 -5 -5 -5 -5 -5 -5 -3 -2 -2 -1 -6 -0 4 9 8 10 8 10 10 11 11 8 8 8 8 9 11 11 10 7 9 10 10 10 9 10 10 10
-0 -0 -0 -1 -3 -3 -4 -3 -4 -4 -3 -1 0 3 6 6 3 -6 -4 -0 4 6 8 8 9 11 11 11 9 9 8 10 9 8 9 9 9 10 10 10 10 10 10
0 -0 -0 0 1 1 0 -1 -1 -2 -2 -0 2 4 4 4 5 4 1 -2 -2 2 4 10 10 10 11 11 11 10 8 8 9 8 9 8 9 10 10 10 10 10 10
-1 -1 -1 -1 -0 0 1 0 -0 -0 0 1 2 2 2 3 4 4 5 4 0 1 6 9 9 10 11 11 11 10 10 9 8 8 6 5 8 9 9 10 10 10 10
-2 -2 -2 -1 -1 -0 0 0 0 0 -0 0 1 1 1 2 2 3 3 4 3 -4 1 -2 3 7 9 8 9 10 10 10 10 10 9 8 7 9 8 9 10 11 10
-2 -3 -2 -2 -2 -2 -1 -1 -1 -1 -1 -1 -0 -0 0 1 1 1 2 2 3 3 2 3 -0 -0 5 7 9 9 10 10 9 10 10 10 9 9 8 9 9 10 11
-3 -4 -4 -4 -3 -3 -3 -3 -2 -1 -1 -1 -0 -0 0 0 0 1 1 1 2 2 2 3 3 3 5 5 5 7 8 9 10 10 9 11 12 10 9 9 8 9 8
-3 -4 -4 -4 -4 -4 -4 -3 -4 -3 -2 -2 -2 -2 -1 -0 0 1 1 1 1 -0 1 2 3 4 3 5 6 7 8 7 10 10 10 9 10 11 11 9 8 8 8
-4 -4 -4 -4 -4 -4 -4 -5 -5 -5 -4 -4 -4 -3 -3 -2 -2 -1 -0 -0 -1 -2 -1 0 2 3 4 5 6 6 8 9 10 10 10 10 10 9 10 10 10 10 10
-5 -5 -5 -6 -5 -4 -5 -5 -5 -5 -5 -5 -5 -4 -4 -3 -3 -3 -2 -2 -1 -1 -2 1 2 3 4 4 6 6 6 8 8 9 9 9 10 11 10 10 10 10 9
-6 -7 -8 -9 -9 -5 -5 -6 -6 -5 -5 -6 -6 -5 -5 -4 -4 -4 -4 -3 -2 -2 -2 -1 0 2 2 3 4 5 6 7 8 8 8 8 8 9 9 9 9 9 10
-8 -9 -12 -18 -18 -7 -6 -7 -8 -9 -10 -7 -8 -12 -6 -6 -5 -6 -5 -4 -4 -3 -3 -4 -3 -1 -0 0 3 3 5 6 6 8 8 9 8 7 7 8 9 10 10
-11 -14 -16 -25 -27 -16 -11 -11 -11 -15 -23 -15 -14 -19 -13 -7 -6 -6 -7 -6 -5 -4 -5 -5 -5 -4 -3 -2 -1 0 3 3 4 5 6 7 7 7 8 8 8 9 9
-14 -16 -21 -32 -31 -21 -12 -11 -11 -18 -28 -27 -25 -29 -26 -19 -11 -7 -7 -7 -7 -6 -6 -7 -7 -6 -5 -4 -4 -4 -3 -2 -1 1 3 4 5 6 7 8 9 9 9
-22 -19 -28 -34 -33 -20 -13 -14 -16 -22 -25 -32 -32 -31 -30 -29 -26 -23 -13 -9 -7 -8 -9 -9 -9 -9 -9 -7 -6 -6 -5 -5 -4 -4 -2 -1 -0 2 3 4 6 7 8
-26 -28 -30 -33 -35 -24 -12 -16 -17 -19 -23 -25 -27 -28 -28 -29 -32 -30 -23 -21 -18 -11 -10 -10 -10 -10 -9 -10 -8 -7 -7 -6 -6 -6 -4 -4 -4 -2 -1 0 1 3 5
-24 -30 -32 -33 -33 -33 -22 -14 -17 -20 -22 -26 -25 -20 -25 -22 -22 -31 -31 -27 -26 -24 -18 -17 -19 -15 -11 -10 -10 -9 -9 -8 -8 -6 -7 -7 -7 -6 -5 -3 0 2 3
-16 -21 -25 -30 -31 -22 -28 -26 -22 -24 -26 -26 -23 -17 -18 -18 -14 -33 -36 -35 -32 -29 -24 -25 -25 -25 -21 -19 -15 -14 -13 -10 -9 -8 -9 -9 -9 -8 -6 -5 -4 -4 -1
-12 -13 -17 -24 -30 -25 -15 -21 -26 -25 -23 -23 -23 -19 -14 -14 -14 -18 -33 -35 -35 -31 -32 -34 -35 -34 -31 -27 -24 -20 -15 -12 -11 -11 -10 -10 -9 -10 -9 -7 -6 -6 -5

GFSMA_850_dewp_138.txt.gz
Dewpoint
14 14 12 11 11 13 12 12 12 12 12 12 12 13 12 12 12 11 11 11 11 11 11 12 11 12 11 11 8 8 9 10 10 10 10 9 10 9 8 8 8 7 6
14 13 13 13 12 11 11 11 11 12 13 13 13 12 12 12 13 12 12 12 12 11 11 11 13 12 12 11 9 7 8 9 10 10 10 10 10 10 9 8 8 8 7
12 12 12 12 12 11 11 11 11 10 10 11 12 12 12 12 11 11 12 12 11 11 8 8 12 11 12 12 11 9 7 9 9 10 10 10 10 10 10 9 9 8 8
10 11 11 11 11 10 10 11 10 10 10 9 9 9 9 9 7 8 8 10 9 8 8 8 9 10 13 13 12 11 9 9 9 10 10 10 10 10 10 10 10 9 8
6 7 8 10 10 10 9 9 10 10 10 10 9 8 9 7 -1 -4 0 8 10 10 9 8 9 10 11 12 11 12 10 10 10 10 10 10 10 10 11 11 10 10 10
1 1 1 2 4 7 8 7 6 7 7 8 7 4 -0 -5 -7 -6 -2 1 9 11 10 10 10 8 10 10 10 10 10 9 6 10 10 10 10 10 10 11 11 11 11
-3 -3 -4 -4 -4 -3 -2 -2 -1 -1 -3 -3 -3 -4 -6 -7 -8 -6 1 5 7 10 11 11 11 10 10 10 10 10 9 7 9 8 10 10 10 10 10 10 11 11 11
-0 -1 -1 -2 -3 -3 -5 -5 -5 -6 -6 -5 -5 -4 -3 -3 -7 -4 5 9 9 9 8 10 11 11 12 12 10 10 7 7 8 11 9 7 10 10 9 10 10 10 11
-0 0 0 0 0 0 1 1 -0 -2 -3 -2 -1 2 4 4 2 4 6 2 4 6 6 6 8 9 11 11 11 11 10 8 9 11 10 9 9 9 9 9 9 10 10
-3 -3 -2 -1 -1 -0 -0 0 1 1 0 0 -0 3 3 3 3 1 -4 -1 2 2 0 3 7 8 9 10 11 11 11 11 10 9 9 11 10 8 9 10 9 9 9
-4 -4 -3 -3 -2 -2 -1 -0 0 1 1 0 1 1 2 2 3 3 4 2 -0 -3 -2 -2 3 7 8 9 9 9 10 10 11 11 10 10 9 8 7 10 9 9 9
-3 -3 -3 -2 -2 -2 -1 -1 -1 -1 -1 -1 -1 -1 0 1 2 2 2 2 2 1 1 -1 -0 0 1 6 7 9 10 9 10 10 11 10 10 9 6 8 8 10 9
-2 -2 -2 -2 -2 -2 -3 -3 -3 -2 -2 -2 -1 -1 -1 -0 0 1 1 1 1 1 1 2 2 3 4 4 5 7 9 8 9 8 9 10 10 10 9 6 7 8 8
-3 -3 -3 -3 -3 -3 -3 -3 -2 -2 -2 -2 -2 -1 -1 -1 -0 0 0 -0 -0 0 1 1 2 3 3 4 3 4 5 6 7 8 8 9 9 10 10 10 8 7 8
-3 -3 -4 -3 -3 -3 -3 -5 -4 -4 -4 -4 -4 -3 -3 -3 -3 -1 -1 -2 -3 -2 -1 1 1 2 2 3 3 4 5 6 7 7 7 10 9 9 10 11 10 7 7
-4 -4 -5 -6 -4 -4 -5 -5 -5 -5 -5 -5 -5 -5 -5 -4 -5 -4 -3 -3 -3 -3 -2 -1 0 0 2 2 3 4 5 6 7 9 9 6 6 9 9 10 11 10 8
-5 -6 -9 -10 -5 -5 -4 -5 -6 -6 -6 -5 -5 -6 -6 -5 -5 -5 -4 -4 -4 -4 -3 -2 -2 -1 0 1 2 3 5 6 7 8 9 9 8 8 9 9 10 11 11
-10 -10 -12 -17 -7 -5 -6 -7 -8 -8 -8 -7 -12 -6 -5 -5 -5 -6 -5 -5 -4 -5 -4 -4 -4 -3 -2 -1 0 2 3 5 5 6 8 8 9 9 8 9 9 10 10
-14 -16 -19 -24 -13 -10 -11 -13 -15 -22 -22 -17 -23 -17 -9 -8 -7 -6 -7 -6 -5 -6 -6 -5 -5 -5 -5 -3 -2 -2 -1 1 4 5 6 7 8 9 8 9 9 9 9
-17 -20 -27 -30 -20 -15 -15 -15 -18 -28 -29 -27 -27 -25 -24 -20 -14 -9 -8 -8 -8 -7 -7 -7 -8 -8 -7 -7 -5 -4 -3 -3 -0 1 1 4 5 6 8 8 9 9 8
-20 -21 -33 -27 -21 -18 -21 -20 -22 -26 -33 -31 -30 -29 -28 -29 -26 -15 -11 -10 -11 -11 -11 -11 -11 -11 -13 -13 -10 -9 -8 -6 -5 -4 -4 -2 -1 1 3 5 7 8 8
-24 -26 -33 -26 -19 -14 -12 -24 -20 -25 -28 -29 -29 -26 -27 -30 -28 -24 -22 -20 -15 -16 -18 -18 -15 -13 -12 -13 -13 -14 -12 -11 -9 -7 -6 -6 -6 -5 -3 -1 1 3 5
-29 -31 -30 -31 -24 -16 -14 -22 -22 -26 -29 -27 -26 -24 -23 -27 -30 -30 -26 -25 -25 -26 -24 -23 -21 -18 -16 -14 -15 -18 -16 -12 -9 -8 -10 -14 -13 -11 -6 -2 -0 0 1
-29 -31 -31 -27 -29 -24 -23 -26 -26 -30 -29 -26 -23 -20 -19 -19 -32 -32 -30 -30 -30 -29 -27 -27 -25 -22 -21 -21 -22 -20 -20 -19 -12 -9 -13 -17 -18 -21 -10 -4 -7 -7 -5
-21 -25 -29 -27 -26 -27 -31 -29 -26 -27 -27 -24 -19 -14 -15 -15 -17 -29 -33 -33 -32 -32 -31 -31 -30 -26 -25 -26 -28 -28 -31 -28 -25 -11 -15 -16 -15 -22 -24 -11 -13 -14 -8
-16 -17 -25 -29 -27 -22 -22 -29 -24 -24 -25 -23 -20 -19 -14 -14 -15 -31 -34 -34 -34 -35 -38 -39 -38 -36 -35 -33 -33 -29 -25 -25 -21 -18 -16 -18 -17 -17 -19 -21 -28 -22 -17

GFSMA_850_dewp_141.txt.gz
Dewpoint
13 13 14 14 13 13 13 13 12 12 12 12 11 11 11 12 12 12 12 12 11 11 10 10 9 9 11 12 12 11 10 10 10 9 9 9 9 8 8 8 7 6 6
12 13 13 13 13 13 12 11 11 11 11 11 11 11 11 11 11 11 11 11 12 12 11 11 9 9 11 11 11 12 12 10 10 10 10 10 9 9 9 8 8 8 7
10 11 11 11 11 11 11 11 10 10 11 11 10 8 8 8 8 9 9 9 10 11 10 11 10 8 8 10 10 8 12 12 10 10 10 10 10 9 10 10 9 8 8
8 8 9 9 10 10 10 10 10 9 9 8 9 8 9 8 7 7 8 4 2 4 7 6 8 8 8 9 10 10 9 11 11 11 10 10 10 10 10 10 10 9 8
4 5 6 7 7 8 8 8 9 9 8 6 7 7 8 8 7 7 3 -4 -1 3 8 7 7 8 8 8 9 8 10 7 11 9 10 10 10 11 10 10 10 10 9
-1 -1 -1 0 1 1 2 2 3 3 3 3 2 2 2 3 2 -3 -7 -7 -0 5 8 9 9 8 9 9 10 11 11 9 6 6 10 9 11 10 11 11 11 10 10
-1 -1 -2 -3 -4 -4 -4 -4 -3 -3 -3 -3 -3 -4 -3 -5 -6 -6 -6 -4 5 8 12 13 12 12 11 11 11 11 11 11 10 10 6 5 8 10 10 10 10 11 11
-2 -1 -0 0 -0 -0 -1 -1 -2 -4 -4 -4 -4 -4 -4 -3 1 3 5 8 10 10 11 11 11 11 11 11 11 11 11 10 10 8 6 7 6 9 10 10 10 10 10
-6 -6 -6 -5 -4 -3 -1 0 0 0 0 0 0 1 3 2 -1 2 7 7 8 8 8 9 10 9 10 10 11 11 11 11 10 8 7 9 8 9 10 9 10 10 10
-7 -6 -5 -5 -5 -4 -3 -3 -2 -0 0 1 1 2 2 2 2 -0 -2 1 3 3 4 4 5 6 7 8 9 10 10 11 11 10 9 8 7 11 10 9 9 9 8
-5 -5 -5 -4 -3 -3 -3 -2 -1 -1 -1 -0 -0 -0 1 1 1 2 2 2 -0 0 -0 -2 -2 -2 2 6 8 8 10 10 10 10 10 10 9 9 10 9 9 8 8
-3 -3 -2 -2 -2 -2 -2 -2 -2 -2 -2 -1 -1 -1 -1 -1 0 0 1 1 1 1 0 -2 -1 1 1 1 5 7 7 8 10 9 10 10 10 11 9 9 11 9 8
-3 -3 -3 -2 -2 -2 -2 -3 -3 -2 -2 -1 -1 -1 -1 -1 -1 -1 -1 -1 -0 -0 0 1 1 1 2 3 3 5 6 6 8 9 9 9 8 9 9 9 10 10 9
-3 -3 -3 -3 -3 -3 -3 -3 -3 -3 -3 -3 -2 -2 -2 -2 -2 -2 -3 -3 -3 -1 0 1 1 2 1 2 2 2 4 5 7 7 8 8 8 7 8 9 10 10 9
-3 -4 -5 -4 -3 -3 -3 -4 -4 -5 -4 -4 -4 -4 -4 -3 -4 -4 -4 -4 -4 -3 -1 0 1 1 1 1 2 2 2 4 5 6 7 7 7 8 10 10 10 9 9
-5 -6 -8 -8 -6 -4 -4 -4 -5 -5 -5 -5 -5 -5 -5 -5 -5 -6 -5 -4 -4 -4 -4 -2 -2 -1 -0 1 1 2 2 3 4 5 7 8 9 8 8 9 9 10 10
-10 -10 -12 -14 -9 -9 -7 -7 -7 -7 -7 -7 -7 -5 -5 -4 -5 -6 -6 -5 -5 -5 -5 -4 -4 -3 -2 -1 -0 1 2 3 3 5 6 7 8 9 8 7 5 6 4
-15 -18 -20 -20 -13 -12 -12 -16 -19 -22 -20 -17 -21 -12 -9 -7 -6 -6 -6 -6 -6 -7 -6 -6 -5 -5 -6 -4 -3 -2 0 2 3 3 4 6 7 7 8 8 4 0 4
-19 -20 -25 -23 -18 -18 -17 -18 -23 -30 -28 -29 -28 -26 -24 -16 -13 -10 -9 -9 -7 -7 -7 -7 -8 -11 -10 -8 -7 -6 -4 -1 1 -2 -0 2 4 5 5 7 7 8 9
-20 -23 -29 -27 -22 -21 -20 -21 -26 -32 -33 -31 -29 -29 -30 -29 -25 -18 -14 -15 -15 -17 -15 -15 -17 -19 -20 -19 -17 -16 -11 -4 -2 -5 -4 -4 -1 1 3 3 5 7 8
-22 -27 -32 -25 -22 -24 -24 -22 -24 -29 -32 -28 -25 -26 -30 -28 -23 -24 -22 -21 -26 -26 -27 -25 -25 -26 -31 -30 -28 -24 -20 -14 -10 -12 -9 -8 -7 -5 -1 0 1 3 6
-25 -30 -32 -27 -24 -24 -26 -24 -25 -29 -29 -28 -26 -24 -29 -30 -28 -27 -26 -25 -27 -28 -29 -26 -24 -24 -25 -28 -29 -28 -26 -22 -19 -21 -21 -20 -17 -13 -5 -3 -4 -2 -1
-30 -32 -32 -31 -25 -23 -26 -27 -29 -28 -25 -25 -25 -23 -27 -32 -31 -29 -28 -29 -31 -30 -28 -24 -25 -23 -25 -28 -29 -33 -32 -22 -14 -17 -26 -32 -32 -28 -10 -4 -14 -15 -8
-30 -32 -33 -29 -28 -27 -26 -26 -27 -26 -23 -21 -20 -19 -22 -30 -33 -31 -32 -34 -34 -34 -32 -30 -29 -28 -30 -32 -33 -32 -34 -31 -23 -22 -33 -32 -38 -38 -19 -6 -15 -30 -27
-25 -29 -30 -26 -24 -27 -25 -23 -22 -24 -23 -21 -16 -14 -17 -23 -31 -32 -33 -34 -35 -35 -34 -32 -30 -32 -34 -36 -37 -38 -40 -40 -37 -27 -35 -29 -32 -40 -37 -18 -32 -36 -35
-17 -22 -26 -24 -22 -18 -17 -19 -21 -23 -24 -23 -21 -19 -14 -15 -17 -34 -35 -35 -35 -35 -36 -35 -35 -35 -36 -36 -35 -36 -35 -35 -36 -31 -32 -32 -36 -37 -39 -36 -41 -41 -39

GFSMA_850_dewp_144.txt.gz
Dewpoint
12 13 13 12 13 13 13 12 12 12 11 11 11 10 10 10 11 11 11 11 12 12 11 10 10 9 8 7 9 11 12 12 11 10 10 9 8 8 8 7 7 7 6
11 11 11 11 11 12 11 11 12 11 11 10 9 9 9 7 6 7 8 8 9 10 11 11 11 11 11 10 9 11 11 11 12 12 11 11 10 9 9 8 8 8 7
9 10 10 10 10 10 10 10 10 10 10 9 8 8 8 9 8 7 5 4 5 6 6 10 12 12 12 11 9 10 9 6 5 8 10 11 11 10 9 9 9 9 8
5 6 7 7 7 8 8 9 9 9 9 9 9 7 6 6 7 7 7 6 5 6 1 2 9 11 12 12 10 11 10 9 7 7 8 10 11 11 10 9 9 9 9
1 1 2 3 3 3 3 3 3 3 3 4 5 6 6 4 4 7 8 7 8 2 -2 -1 9 11 10 11 10 10 9 9 9 8 8 8 11 11 11 11 10 9 10
-2 -2 -2 -2 -1 -1 -1 -2 -2 -3 -2 -2 -1 -0 1 2 0 1 3 1 2 1 3 5 9 11 10 10 9 9 9 8 8 7 7 5 11 11 10 11 11 10 10
-3 -3 -2 -1 -1 -1 -1 -2 -3 -3 -3 -3 -4 -4 -4 -3 -4 -5 -4 -3 -1 3 9 10 11 11 11 11 11 10 10 10 10 9 9 7 6 10 10 10 10 10 10
-9 -8 -8 -7 -7 -7 -7 -5 -3 -1 -0 0 0 0 -1 -3 0 6 6 6 8 9 8 9 10 9 10 11 11 11 11 10 11 11 10 9 8 8 10 10 10 10 10
-11 -10 -9 -9 -9 -8 -8 -7 -5 -4 -4 -3 1 2 2 2 0 -2 6 6 7 7 7 7 8 9 10 10 10 10 10 10 11 11 11 11 11 11 11 9 8 9 10
-7 -7 -7 -7 -7 -7 -6 -6 -6 -4 -2 -1 -1 1 1 1 2 2 -1 1 2 3 4 3 3 4 7 8 8 9 10 10 10 11 10 12 12 11 8 8 7 8 9
-6 -6 -6 -6 -5 -4 -3 -3 -3 -2 -2 -2 -2 -1 -1 0 1 1 2 2 1 0 0 0 -1 -1 -1 1 6 7 8 9 10 10 11 10 11 10 7 8 8 9 10
-5 -5 -5 -4 -3 -2 -2 -2 -2 -2 -2 -2 -2 -2 -1 -2 -1 -1 -1 -0 0 0 1 0 1 2 2 2 2 4 7 7 7 9 10 10 10 9 9 9 7 8 10
-4 -4 -3 -3 -3 -2 -2 -3 -3 -2 -2 -2 -2 -2 -2 -2 -2 -1 -2 -2 -2 -0 -0 0 1 1 1 1 1 2 3 5 6 6 6 9 9 10 10 9 10 10 9
-4 -4 -4 -4 -4 -3 -3 -3 -4 -4 -4 -4 -4 -4 -3 -3 -3 -3 -3 -4 -4 -2 -1 1 1 1 1 1 1 1 1 1 3 5 5 6 6 8 8 8 7 8 10
-6 -6 -6 -7 -7 -7 -7 -5 -5 -5 -5 -4 -4 -4 -4 -4 -4 -4 -4 -4 -5 -4 -2 -1 -1 -1 0 -0 0 1 1 1 1 2 4 5 5 6 7 8 8 8 10
-9 -11 -11 -11 -11 -12 -11 -10 -11 -9 -7 -7 -6 -5 -4 -5 -5 -5 -5 -5 -5 -6 -5 -3 -4 -4 -3 -3 -2 -0 1 1 1 2 3 4 5 6 6 7 9 8 9
-14 -19 -22 -23 -22 -18 -15 -18 -21 -21 -19 -17 -17 -12 -8 -6 -6 -5 -5 -5 -5 -6 -6 -6 -5 -4 -5 -4 -3 -1 0 -1 -1 -0 2 4 4 5 6 7 8 8 8
-19 -23 -26 -27 -25 -22 -22 -21 -24 -28 -26 -27 -28 -26 -19 -13 -9 -8 -7 -6 -6 -6 -7 -6 -6 -7 -10 -8 -7 -5 -3 -2 -4 -3 -0 1 2 4 5 6 7 8 8
-23 -26 -28 -29 -24 -22 -20 -24 -30 -33 -32 -31 -30 -31 -28 -25 -20 -16 -16 -17 -17 -13 -11 -14 -18 -23 -22 -16 -16 -12 -4 -3 -7 -5 -4 -4 -1 1 2 3 4 6 7
-24 -29 -30 -29 -24 -22 -23 -26 -28 -31 -31 -29 -30 -31 -30 -28 -25 -23 -23 -27 -25 -26 -26 -27 -28 -31 -32 -31 -28 -26 -14 -3 -10 -14 -10 -12 -6 -2 -1 -0 1 2 4
-29 -30 -30 -23 -21 -24 -27 -28 -27 -29 -29 -28 -27 -29 -32 -32 -31 -30 -29 -31 -30 -31 -32 -29 -29 -32 -36 -37 -35 -35 -27 -17 -9 -24 -20 -24 -22 -6 -6 -7 -6 -3 -1
-30 -32 -27 -23 -21 -27 -35 -32 -28 -28 -28 -27 -25 -26 -31 -31 -30 -32 -33 -34 -35 -33 -33 -31 -31 -34 -36 -36 -35 -36 -36 -31 -23 -30 -35 -36 -36 -18 -5 -16 -28 -26 -21
-31 -31 -28 -23 -24 -30 -36 -33 -27 -27 -25 -24 -23 -23 -31 -32 -32 -33 -35 -36 -37 -38 -35 -33 -33 -34 -36 -36 -35 -38 -37 -28 -21 -34 -40 -40 -41 -27 -9 -12 -25 -38 -38
-31 -32 -31 -27 -27 -36 -35 -27 -24 -24 -22 -21 -20 -21 -28 -32 -33 -33 -35 -37 -37 -38 -37 -36 -36 -36 -37 -38 -37 -37 -39 -34 -28 -38 -41 -41 -42 -35 -18 -17 -38 -41 -41
-29 -30 -29 -25 -28 -34 -28 -24 -22 -22 -21 -19 -17 -17 -23 -31 -33 -33 -35 -36 -37 -37 -35 -34 -34 -36 -37 -38 -39 -39 -41 -41 -40 -38 -40 -40 -41 -42 -37 -20 -42 -42 -42
-21 -24 -26 -23 -26 -27 -25 -23 -21 -22 -23 -22 -21 -19 -16 -24 -35 -36 -38 -38 -38 -36 -36 -36 -36 -36 -37 -37 -38 -38 -38 -39 -38 -38 -38 -35 -39 -40 -42 -42 -42 -42 -42

GFSMA_850_dewp_147.txt.gz
Dewpoint
12 12 12 12 12 12 12 12 12 12 12 11 11 10 9 9 8 8 7 7 9 10 11 12 12 11 11 10 8 9 12 12 12 11 10 10 10 9 9 8 7 7 6
10 10 10 10 11 10 11 11 11 10 11 10 9 9 8 8 8 7 9 7 5 5 7 9 11 12 12 12 11 7 9 10 8 12 11 9 8 9 10 9 9 8 7
7 8 9 10 9 9 9 9 9 8 8 9 9 9 9 8 7 6 6 8 7 5 5 7 8 11 13 12 12 11 8 8 10 12 11 8 7 8 8 10 10 9 8
3 4 4 5 5 5 5 5 5 5 5 6 5 5 6 7 6 5 5 7 8 7 5 6 7 8 12 12 13 12 11 8 10 10 9 7 8 7 8 9 10 10 10
-2 -1 -1 -1 -1 -1 -1 -1 -1 -0 -0 0 0 1 1 1 1 3 2 3 6 8 8 8 5 5 7 10 10 11 12 12 10 9 9 9 7 6 6 7 10 10 10
-3 -3 -3 -3 -2 -2 -2 -2 -2 -2 -2 -2 -2 -3 -3 -3 -2 -1 -1 -0 -0 1 6 6 7 9 11 11 10 10 10 11 11 10 9 10 9 8 7 7 11 10 10
-11 -11 -10 -10 -10 -9 -10 -9 -9 -8 -5 -4 -4 -3 -2 -2 -3 -1 1 3 5 6 8 8 9 9 10 10 10 10 10 11 10 10 10 10 9 8 8 8 10 11 11
-16 -15 -15 -15 -14 -14 -13 -12 -12 -11 -9 -8 -5 -2 3 -0 -0 1 5 7 6 6 7 8 8 8 9 10 11 11 11 11 11 11 11 11 9 8 9 8 9 10 10
-12 -12 -11 -9 -9 -7 -7 -6 -7 -7 -7 -7 -3 -2 2 2 0 2 2 4 5 5 6 5 6 6 7 8 9 10 10 11 11 11 10 10 9 10 10 8 8 8 10
-9 -8 -7 -7 -6 -5 -4 -4 -4 -4 -4 -4 -4 -2 0 0 1 1 2 2 2 2 2 2 2 2 1 3 7 8 9 10 10 10 9 8 9 10 10 10 9 7 9
-7 -6 -5 -4 -4 -3 -3 -3 -3 -3 -3 -2 -2 -2 -2 -1 0 0 0 1 1 0 1 0 1 -0 0 0 1 3 7 8 9 9 9 10 10 11 11 11 11 10 10
-5 -5 -4 -4 -3 -3 -3 -3 -3 -3 -3 -3 -2 -2 -2 -2 -1 -1 -2 -2 -1 -0 -1 1 0 0 1 1 1 1 1 4 6 7 7 8 9 10 10 10 10 11 9
-5 -5 -5 -5 -5 -4 -5 -4 -4 -3 -3 -3 -3 -3 -3 -2 -2 -3 -3 -3 -3 -2 -0 0 0 0 0 1 1 1 1 0 1 5 6 6 7 9 9 10 10 10 10
-6 -6 -6 -7 -7 -7 -8 -9 -9 -8 -6 -5 -4 -4 -4 -4 -4 -4 -4 -5 -4 -3 -2 -1 -1 -0 -0 0 0 0 0 1 0 -0 1 4 5 5 6 7 8 9 9
-8 -9 -10 -12 -13 -14 -16 -17 -18 -17 -13 -9 -7 -6 -5 -4 -4 -4 -5 -5 -6 -4 -3 -2 -3 -2 -2 -2 -1 -1 0 0 1 1 1 1 1 4 5 5 6 6 8
-10 -15 -19 -23 -25 -24 -24 -24 -25 -25 -23 -21 -18 -15 -11 -9 -6 -5 -5 -5 -6 -6 -4 -4 -5 -5 -4 -4 -3 -2 -2 -1 -0 0 1 2 2 3 4 4 5 5 5
-15 -20 -25 -27 -26 -27 -27 -28 -29 -30 -29 -30 -29 -27 -21 -16 -11 -8 -6 -6 -6 -6 -7 -6 -6 -6 -5 -5 -5 -4 -4 -3 -2 -2 -0 1 2 3 3 3 4 5 7
-18 -25 -29 -30 -29 -30 -28 -31 -33 -35 -34 -33 -33 -30 -28 -24 -18 -15 -12 -10 -9 -9 -7 -7 -9 -9 -9 -8 -6 -5 -5 -6 -4 -3 -2 -1 0 1 2 3 4 5 6
-24 -28 -30 -31 -32 -32 -33 -33 -33 -34 -32 -30 -31 -30 -28 -25 -22 -20 -24 -23 -24 -22 -22 -20 -24 -29 -28 -25 -18 -6 -5 -8 -6 -8 -6 -3 -2 -1 -1 -0 1 2 3
-26 -29 -32 -33 -34 -34 -35 -34 -31 -31 -30 -28 -28 -30 -26 -24 -21 -22 -27 -27 -28 -26 -25 -22 -25 -29 -31 -31 -28 -17 -6 -7 -23 -10 -11 -15 -5 -5 -4 -3 -3 -3 -2
-28 -31 -31 -35 -34 -34 -37 -32 -31 -29 -27 -27 -27 -31 -32 -32 -33 -34 -30 -31 -31 -30 -27 -22 -25 -30 -35 -37 -32 -24 -15 -6 -27 -29 -33 -37 -12 -10 -19 -23 -24 -27 -24
-29 -31 -33 -35 -32 -33 -38 -37 -29 -27 -27 -25 -26 -31 -33 -33 -35 -37 -38 -39 -39 -36 -38 -37 -38 -38 -38 -37 -36 -28 -24 -14 -17 -39 -39 -39 -28 -7 -17 -25 -29 -35 -38
-32 -34 -35 -31 -30 -34 -37 -35 -28 -26 -25 -25 -27 -32 -34 -34 -36 -37 -38 -38 -39 -39 -40 -39 -38 -36 -37 -38 -38 -39 -35 -21 -37 -41 -39 -38 -29 -9 -16 -36 -41 -42 -42
-31 -33 -34 -31 -32 -33 -33 -30 -26 -25 -26 -26 -27 -32 -34 -36 -36 -37 -38 -38 -39 -40 -40 -39 -39 -39 -39 -40 -40 -41 -40 -32 -31 -41 -41 -41 -42 -26 -13 -38 -42 -42 -42
-32 -33 -31 -30 -32 -31 -31 -28 -24 -24 -25 -27 -28 -28 -34 -36 -37 -38 -38 -39 -39 -39 -38 -38 -38 -39 -39 -40 -41 -41 -41 -41 -40 -41 -41 -42 -42 -42 -21 -41 -42 -42 -43
-27 -26 -27 -28 -28 -28 -28 -25 -24 -24 -25 -27 -28 -26 -29 -38 -38 -38 -39 -39 -39 -38 -37 -37 -38 -39 -39 -40 -40 -40 -40 -40 -40 -40 -41 -39 -41 -42 -41 -42 -42 -42 -42